N0RAP Weather Reports


time (UTC)temp
C
wind
direction
speed
KPH
gust
KPH
rain 1hr
cm
rain 24hr
cm
rain mn
cm
humidity
%
barometer
mb
20260507180043 12 304 3.2 9.7 0.03 0.53 0.03 33 1021.5
20260507174555 13 243 3.2 8.0 0.03 0.53 0.03 28 1021.5
20260507173040 13 291 3.2 8.0 0.00 0.51 0.00 38 1021.8
20260507171553 12 319 3.2 6.4 0.00 0.51 0.00 31 1021.9
20260507170050 12 0 1.6 6.4 0.00 0.51 0.00 31 1021.9
20260507164542 12 333 3.2 6.4 0.00 0.51 0.00 39 1022.1
20260507163053 11 244 1.6 8.0 0.00 0.51 0.00 32 1022.2
20260507161551 11 257 1.6 6.4 0.00 0.51 0.00 39 1022.2
20260507160047 10 212 0.0 3.2 0.00 0.51 0.00 46 1022.2
20260507154549 9 297 1.6 8.0 0.00 0.51 0.00 49 1022.3
20260507153052 8 274 1.6 11.3 0.00 0.51 0.00 52 1022.3
20260507151543 7 278 4.8 16.1 0.00 0.51 0.00 50 1022.4
20260507150049 6 283 1.6 12.9 0.00 0.51 0.00 54 1022.2
20260507144539 6 280 3.2 11.3 0.00 0.51 0.00 57 1022.2
20260507143039 5 292 3.2 9.7 0.00 0.51 0.00 59 1022.2
20260507141547 3 0 0.0 6.4 0.00 0.51 0.00 63 1022.2
20260507140049 3 279 0.0 4.8 0.00 0.51 0.00 59 1022.2
20260507134554 2 0 1.6 8.0 0.00 0.51 0.00 60 1022.1
20260507133041 1 223 0.0 1.6 0.00 0.51 0.00 66 1021.8
20260507131559 1 258 0.0 3.2 0.00 0.51 0.00 65 1021.7
20260507130105 0 0 0.0 1.6 0.00 0.51 0.00 67 1021.7
20260507124538 0 0 0.0 3.2 0.00 0.51 0.00 66 1021.6
20260507123051 0 0 0.0 6.4 0.00 0.51 0.00 64 1021.3
20260507121543 -1 0 0.0 1.6 0.00 0.51 0.00 70 1021.2
20260507120043 -1 0 0.0 1.6 0.00 0.51 0.00 69 1021.2
20260507114543 -1 0 0.0 4.8 0.00 0.51 0.00 68 1021.3
20260507113045 -1 0 0.0 6.4 0.00 0.51 0.00 65 1021.2
20260507111544 -1 203 1.6 4.8 0.00 0.51 0.00 65 1021.2
20260507110043 -1 0 0.0 1.6 0.00 0.51 0.00 71 1021.1
20260507104543 -1 0 0.0 1.6 0.00 0.51 0.00 68 1021.1
20260507103043 -1 0 0.0 4.8 0.00 0.51 0.00 69 1021.1
20260507101540 -2 0 0.0 1.6 0.00 0.51 0.00 74 1021.3
20260507100044 -2 0 0.0 1.6 0.00 0.51 0.00 74 1021.4
20260507094544 -2 0 0.0 1.6 0.00 0.51 0.00 77 1021.2
20260507093049 -2 0 0.0 1.6 0.00 0.51 0.00 77 1021.3
20260507091549 -2 0 0.0 0.0 0.00 0.51 0.00 77 1021.5
20260507090047 -2 0 0.0 0.0 0.00 0.51 0.00 79 1021.6
20260507084548 -2 0 0.0 1.6 0.00 0.51 0.00 79 1021.7
20260507083047 -2 266 0.0 3.2 0.00 0.51 0.00 80 1021.7
20260507081555 -2 238 0.0 1.6 0.00 0.51 0.00 83 1021.7
20260507080051 -2 0 0.0 1.6 0.00 0.51 0.00 85 1021.8
20260507074600 -3 0 0.0 1.6 0.00 0.51 0.00 87 1021.9
20260507073051 -3 0 0.0 1.6 0.00 0.51 0.00 89 1022.0
20260507071543 -3 0 0.0 1.6 0.00 0.51 0.00 91 1021.9
20260507070043 -3 0 0.0 1.6 0.00 0.51 0.00 94 1022.0
20260507064540 -3 0 0.0 0.0 0.00 0.51 0.00 95 1022.0
20260507063039 -3 0 0.0 0.0 0.00 0.51 0.00 95 1022.0
20260507061544 -3 0 0.0 0.0 0.00 0.51 0.00 95 1022.0
20260507060045 -3 0 0.0 0.0 0.00 0.51 0.00 94 1021.9
20260507054607 -3 0 0.0 0.0 0.00 0.51 0.51 94 1021.8
20260507053052 -3 0 0.0 1.6 0.00 0.51 0.51 94 1021.9
20260507051549 -2 0 0.0 1.6 0.00 0.51 0.51 94 1021.7
20260507050039 -2 0 0.0 1.6 0.00 0.51 0.51 94 1021.7
20260507044549 -2 219 0.0 4.8 0.00 0.51 0.51 94 1021.6
20260507043046 -2 230 0.0 4.8 0.00 0.51 0.51 94 1021.6
20260507041548 -2 153 0.0 3.2 0.00 0.51 0.51 94 1021.6
20260507040051 -2 0 0.0 3.2 0.00 0.51 0.51 94 1021.7
20260507034555 -2 0 0.0 4.8 0.00 0.51 0.51 93 1021.7
20260507033053 -2 0 0.0 4.8 0.00 0.51 0.51 93 1021.5
20260507031602 -2 0 0.0 4.8 0.00 0.51 0.51 92 1021.5
20260507030051 -2 207 0.0 4.8 0.00 0.51 0.51 93 1021.2
20260507024545 -2 125 0.0 3.2 0.00 0.51 0.51 91 1021.1
20260507023040 -2 276 0.0 3.2 0.00 0.51 0.51 91 1021.0
20260507021539 -2 0 0.0 3.2 0.00 0.51 0.51 90 1021.1
20260507020039 -1 0 0.0 1.6 0.00 0.51 0.51 88 1020.9
20260507014555 -1 39 0.0 4.8 0.00 0.51 0.51 86 1020.9
20260507013045 0 0 0.0 4.8 0.03 0.51 0.51 82 1020.9
20260507011544 1 0 0.0 1.6 0.03 0.51 0.51 80 1020.8
20260507010044 1 155 1.6 4.8 0.05 0.51 0.51 79 1020.7
20260507004540 0 171 0.0 4.8 0.05 0.51 0.51 81 1020.6
20260507003051 0 266 0.0 9.7 0.05 0.48 0.48 80 1020.6
20260507001543 1 171 0.0 4.8 0.08 0.48 0.48 76 1020.6
20260507000051 1 129 0.0 4.8 0.08 0.46 0.46 79 1020.6
20260506234540 1 0 0.0 8.0 0.10 0.48 0.46 76 1020.4
20260506233102 1 124 0.0 8.0 0.10 0.46 0.43 77 1020.5
20260506231541 0 271 0.0 3.2 0.13 0.43 0.41 78 1020.6
20260506230046 0 276 0.0 4.8 0.15 0.41 0.38 77 1020.5
20260506224543 0 276 1.6 6.4 0.15 0.43 0.36 77 1020.5
20260506223040 0 272 0.0 6.4 0.15 0.41 0.33 78 1020.6
20260506221550 0 1 1.6 6.4 0.18 0.36 0.28 81 1020.7
20260506220038 0 297 0.0 6.4 0.18 0.30 0.23 83 1020.7
20260506214550 0 17 3.2 9.7 0.20 0.30 0.20 80 1020.6
20260506213051 0 330 0.0 8.0 0.18 0.28 0.18 80 1020.8
20260506211543 0 0 1.6 9.7 0.10 0.20 0.10 76 1020.9
20260506210041 1 309 3.2 9.7 0.05 0.15 0.05 79 1020.9
20260506204550 1 31 1.6 14.5 0.00 0.13 0.00 79 1020.8
20260506203043 0 308 1.6 6.4 0.00 0.13 0.00 82 1021.0
20260506201543 0 74 3.2 6.4 0.00 0.13 0.00 83 1020.8
20260506200043 0 299 1.6 9.7 0.00 0.13 0.00 85 1020.7
20260506194555 -1 23 0.0 8.0 0.00 0.18 0.00 86 1020.7
20260506193039 0 319 1.6 9.7 0.00 0.18 0.00 83 1020.7
20260506191538 -1 318 1.6 9.7 0.00 0.18 0.00 84 1020.7
20260506190050 0 309 3.2 9.7 0.00 0.18 0.00 85 1020.6
20260506184544 -1 311 1.6 9.7 0.00 0.25 0.00 86 1020.7
20260506183051 0 305 0.0 4.8 0.00 0.25 0.00 87 1020.8
20260506181550 -1 0 1.6 8.0 0.00 0.25 0.00 87 1020.8